Volver al catálogo

SJ-30A

ActivoCienciaVLEO
NORAD 66545·PAYLOAD·🇨🇳 China

Lanzado Nov 19, 2025 desde Jiuquan Satellite Launch Center

Loading…

Próximos Pases (próximas 24 horas)

TLE

ActualizadoSource: Space-Track

Época: Sep 14, 2026, 15:43 UTC

1 66545U 25266A   26257.65486685  .00004567  00000-0  25338-3 0  9993
2 66545  51.7975 120.2687 0006725 186.8336 173.2549 15.15598265 45426

Sigue SJ-30A en tiempo real con AllMySat

Download on the App Store